This demonstration page uses our WeatherBlox Daily Observations layout. Learn more.

Left ArrowRight Arrow

39.12711, -84.51439

Hourly Observations for October 17, 2016

Temp ( °F °C ) Dew Point ( °F °C ) Humidity (%) Winds ( mph kmh ) Pressure ( in mb ) Visibility ( mi km ) Precip ( " mm )
12:53 am 00:53 Clear 65 18.3 60 15.6 84 84 SSW 5 7 29.98 1015 10 16 0.00 0.00
1:53 am 01:53 Clear 61 16.1 60 15.6 97 97 Calm 29.98 1015 10 16 0.00 0.00
2:53 am 02:53 Clear 60 15.6 60 15.6 100 100 Calm 29.98 1015 10 16 0.00 0.00
3:53 am 03:53 Mostly Cloudy 60 15.6 60 15.6 100 100 Calm 29.98 1015 8 13 0.00 0.00
4:53 am 04:53 Mostly Cloudy 61 16.1 61 16.1 100 100 Calm 29.98 1015 10 16 0.00 0.00
5:53 am 05:53 Cloudy 62 16.7 61 16.1 96 96 S 3 6 29.98 1015 10 16 0.00 0.00
6:53 am 06:53 Clear 63 17.2 60 15.6 90 90 SSW 5 7 29.97 1015 10 16 0.00 0.00
7:53 am 07:53 Sunny 61 16.1 59 15 93 93 SSW 6 9 29.97 1015 10 16 0.00 0.00
8:53 am 08:53 Mostly Cloudy 65 18.3 62 16.7 90 90 S 5 7 29.98 1015 10 16 0.00 0.00
9:53 am 09:53 Mostly Cloudy 69 20.6 63 17.2 81 81 SW 7 11 29.97 1015 10 16 0.00 0.00
10:53 am 10:53 Mostly Cloudy 72 22.2 64 17.8 76 76 S 10 17 29.96 1015 10 16 0.00 0.00
11:53 am 11:53 Sunny 75 23.9 64 17.8 69 69 SSW 13 20 29.94 1014 10 16 0.00 0.00
12:53 pm 12:53 Sunny 79 26.1 63 17.2 58 58 SSW 14 22 29.91 1013 10 16 0.00 0.00
1:53 pm 13:53 Mostly Sunny 81 27.2 63 17.2 54 54 SSW 17 28 29.88 1012 10 16 0.00 0.00
2:53 pm 14:53 Partly Cloudy 82 27.8 62 16.7 51 51 SW 20 31 29.85 1011 10 16 0.00 0.00
3:53 pm 15:53 Partly Cloudy 82 27.8 62 16.7 51 51 SSW 17 28 29.82 1010 10 16 0.00 0.00
4:53 pm 16:53 Mostly Sunny 82 27.8 62 16.7 51 51 SSW 14 22 29.81 1010 10 16 0.00 0.00
5:53 pm 17:53 Sunny 80 26.7 62 16.7 54 54 SSW 16 26 29.81 1009 10 16 0.00 0.00
6:53 pm 18:53 Sunny 75 23.9 62 16.7 64 64 S 9 15 29.81 1010 10 16 0.00 0.00
7:53 pm 19:53 Clear 71 21.7 61 16.1 71 71 S 8 13 29.82 1010 10 16 0.00 0.00
8:53 pm 20:53 Clear 71 21.7 61 16.1 71 71 S 8 13 29.82 1010 10 16 0.00 0.00
9:53 pm 21:53 Clear 72 22.2 61 16.1 68 68 S 13 20 29.81 1010 10 16 0.00 0.00
10:53 pm 22:53 Clear 72 22.2 61 16.1 68 68 SSW 12 19 29.82 1010 10 16 0.00 0.00
11:53 pm 23:53 Clear 70 21.1 61 16.1 73 73 SSW 10 17 29.82 1010 10 16 0.00 0.00

Powered by AerisWeather